星链-5197 (STARLINK-5197 )

导读 | 豆包AI

STARLINK-5197是美国SpaceX公司星链(Starlink)卫星星座中的一颗卫星,于2022年10月20日发射入轨,属于星链第二代组网的一部分,运行在近地轨道。它配备了星链标准的相控阵通信天线与氪离子推进系统,可提供高速低延迟卫星互联网服务,服务覆盖全球偏远地区,并支持应急通信等场景。星链计划最终部署规模超四万颗,STARLINK-5197是该全球卫星互联网基础设施建设的一环,退役后会主动降轨在大气层完全烧毁,减少空间碎片。

基本信息
目录编号:
54097
目录名称:
STARLINK-5197
国际标识:
2022-136AY
轨道中心:
EARTH
卫星名称:
星链-5197
卫星全名:
星链-5197 (STARLINK-5197 )
卫星状态:
在轨 (已飞行1288 天)
发射日期:
2022-10-20 UTC
国别 :
美国 (US)
星等 :
--
轨道信息
数据来源 国际轨道数据 AOE轨道数据
星历时间 2026-04-30T05:05:19+0800
18小时前
查看轨道信息
2026-04-27T18:00:00+0800
3天前
查看轨道信息
半长轴 6917.887km 6917.852km
偏心率 0.0001206 0.0000862
轨道倾角 53.217° 53.215°
近地点辐角 88.552° 91.443°
升交点赤经 79.251° 90.304°
平近点角 271.560° 208.141°
近地点 538.915km 539.118km
远地点 540.585km 540.312km
周期 95.438分钟 95.437分钟
每日圈数 15.088381 15.088493
详细信息
固有亮度:
5
最大亮度:
2.5
卫星平台:
Starlink v1.5
覆盖范围:
全球
运营商:
太空探索技术公司
运营商所在国:
美国
制造商(研发单位):
太空探索技术公司
制造商所在国:
美国
使用方式:
暂无
卫星简介
星链(Starlink)计划是由太空探索技术公司(SpaceX)提出的一个巨型低轨卫星互联网星座项目,计划在2019年至2024年间在太空搭建由约1.2万颗卫星组成的“星链”网络,其中1584颗将部署在地球上空550千米处的近地轨道,并从2020年开始工作。该卫星仍在工作。
2D轨道图
3D轨道图
轨道高度分析图
轨道倾角分析图
轨道综合分析图
查看轨道综合分析图